OBJECT N, 57178

Orbit data source: Space-Track

You're viewing an uncataloged RSO

Recently launched and/or uncataloged RSOs may have evolving metadata. Metadata may include the following, but is not limited to: Owner, Manufacturer, Bus, Motor, and Mission.

OBJECT N, 57178 is a satellite in SSO that was launched on Tue, 27 Jun 2023 UTC via a SOYUZ-2-1B launch vehicle from the Vostochny Cosmodrome (VOSTO). Unknown objects in Earth's orbit typically refer to objects detected orbiting the Earth but have not yet been identified or cataloged. These objects could be anything from previously untracked satellites, spent rocket stages, debris from satellite collisions, or even natural meteoroids temporarily captured by Earth's gravity.

Loading next visibility...
Identifier
57178, 2023-091N
Orbit
SSO
Country
Flag of TBDTBD
Related business
Flag of RUNational Research University Higher School of Economics (RU)
Manufacturer
Sputniks
Mission
Operational Amateur Imaging/Com
Bus & Motor
CUBESAT 3U, Unknown motor
Mass
3.39 kg wet, 3.39 kg dry
Launch date (UTC)
2023-06-27 (3 years ago)
Launch vehicle
SOYUZ-2-1B
Launch site
Vostochny Cosmodrome (VOSTO)
Object type
Unknown
Shape & HBR
Box, 0.2 m
Radar Cross Section
0.035 m², Medium (>0.1 m² and < 1m²)

Expand to show TLE details & history
Last TLE update: 8 hours ago

TLE from 8 hours ago
0 OBJECT N
1 57178U 23091N   26256.92584104  .00011527  00000-0  36140-3 0  9990
2 57178  97.5003 323.7207 0011322 132.4627 227.7574 15.33165721178017
Epoch: 2026-09-13T22:13Z
TLE epoch observation values (Epoch: 2026-09-13T22:13:12.665Z)
Latitude
-0.00005°
Longitude
-2.49556°
Altitude
474.695 km
Speed
7.626 km/s
True Right ascension
21h 34m 52s
True Declination
0° 00' 00"
Sunlit
Object was in full shadow at epoch
Visualization orbit readout
Latitude
Unknown
Longitude
Unknown
Altitude
Unknown
Speed
Unknown
Apparent Right ascension
Unknown
Apparent Declination
Unknown
Sunlit
N/A
Visualization observer readout
Local Sidereal Time
22:40:40
Azimuth
Unknown
Elevation
Unknown
Doppler factor
Unknown
Orbital elements
Apogee altitude
471.073 km
Perigee altitude
455.581 km
Semi-major axis
6,841.464 km
Eccentricity
0.00113
Inclination
97.5003°
RAAN
323.7207°
Arg. of periapsis
132.4627°
True anomaly
227.66144°
Mean anomaly
227.7574°
Eccentric anomaly
227.70941°
Mean motion
3.83548 °/min
Orbital period
93.86 mins
BSTAR
0.0003614
Loading maneuver chart data...
Computing Atmospheric mass density...
Loading historical data...
Loading historical data...
Loading historical data...
Loading historical data...
Loading historical data...
Loading historical data...
Loading historical data...

Documentation

Showing up to 5 results
|